Погода в Каге

Россия / Республика Башкортостан     53°31′13″N   57°41′02″E
темп.,
°C
ветер,
м/с
пор.,
м/с
влажн.,
%
обл.,
%
осадки,
мм/ч
давл.,
гПа
погр.,
м
24 сентября, пт
пт2423:00+3вюв227681 0.0 102925
02:00+2в2178100 0.0 102920
05:00+3в2274100 0.0 102939
08:00+4в1265100 0.0 102975
11:00+9юв4740100 0.0 1027740
14:00+12юв4634100 0.0 10251085
17:00+11юв493891 0.0 1024838
20:00+6вюв31049100 0.0 1025305
25 сентября, сб
сб2523:00+6вюв31145100 0.0 1024449
02:00+6вюв284789 0.0 1023352
05:00+4в245498 0.0 1022102
08:00+5в21051100 0.0 1020381
11:00+11вюв51232100 0.0 1018669
14:00+14юв61023100 0.0 1016933
17:00+13юв51025100 0.0 1015999
20:00+11вюв31029100 0.0 1015392
26 сентября, вс
вс2623:00+11в41330100 0.0 1013585
02:00+10вюв41432100 0.0 1012546
05:00+9вюв51336100 0.0 1012623
08:00+8вюв51466100 0.0 1012595
11:00+8в41377100 0.0 1012598
14:00+9вюв51150100 0.0 1012654
17:00+9вюв51243100 0.0 1011767
20:00+6в61372100 0.0 1013874
27 сентября, пн
пн2723:00+6всв51281100 0.4 1013821
02:00+4всв61373100 0.1 1012636
05:00+3всв51362100 0.1 1012683
08:00+1всв61566100 0.1 1012693
11:00+2всв61363100 0.1 1012888
14:00+4всв61251100 0.0 10121117
17:00+5всв61347100 0.0 10131346
20:00+3всв71548100 0.0 10141179
28 сентября, вт
вт2823:00+2всв715545 0.0 10151155
02:000всв614675 0.0 1016934
05:00−2св5158172 0.0 1018843
08:00−1св6137599 0.0 1019841
11:00+1св696388 0.0 1020991
14:00+5св464641 0.0 10201366
17:00+5св354244 0.0 10201485
20:000в1164100 0.0 102212